Preview of NWS' New Version of Forecast
This preview is not operational and should not be used for support decisions.
Latest weather observations around

Murrieta (SDMEA)

Using English Units (Switch to International System of Units)
Date/ Time (PDT) Wind (mph) Vis. (mi) Weather Sky Cond. Temp (°F) Rel. Humidity Wind Chill (°F) Heat Index (°F) Pressure Precip. (in)
Air Dwpt 6 hour Altimeter (inHg) Sea level (inHg) 1 hr 3 hr 6 hr
Max Min
May 18 22:49 Calm   Clear   56 52     88%     29.97        
May 18 21:49 Calm   Clear   57 53     86%     29.96        
May 18 20:49 Calm   Clear   58 54     86%     29.94        
May 18 19:49 Calm   Clear   59 52     79%     29.94        
May 18 18:49 WSW 2   Clear   62 51     68%     29.93        
May 18 17:49 WSW 10   Clear   65 50     59%     29.92        
May 18 16:49 SW 7   Clear   67 51     56%     29.93        
May 18 15:49 WSW 2   Clear   68 50     53%              
May 18 14:49 SW 5   Clear   70 52     53%              
May 18 13:49 W 1   Clear   70 53     55%     29.98        
May 18 12:49 Calm   Clear   70 51     51%              
May 18 11:49 Calm   Clear   68 53     59%     29.99        
May 18 10:49 Calm   Clear   66 52     61%     30        
May 18 09:49 Calm   Clear   63 51     64%     30        
May 18 08:49 SSW 2   Clear   60 49     67%     29.99        
May 18 07:49 Calm   Clear   55 49     81%     29.98        
May 18 06:49 Calm   Clear   47 44     89%              
May 18 05:49 W 2   Clear   45 42     89%     29.97        
May 18 04:49 WSW 5   Clear   46 43     90% 44   29.96        
May 18 03:49 Calm   Clear   46 42     87%     29.98        
May 18 02:49 WSW 5   Clear   47 43     86% 45   29.99        
May 18 01:49 Calm   Clear   48 45     88%     30.01        
May 18 00:49 Calm   Clear   50 46     85%     30.03        
May 17 23:49 WSW 5   Clear   50 46     85%     30.03        
May 17 22:49 WNW 2   Clear   53 47     80%     30.04        
May 17 21:49 Calm   Clear   54 47     78%     30.03        
May 17 20:49 Calm   Clear   57 48     72%     30.01        
May 17 19:49 W 7   Clear   59 49     69%     29.98        
May 17 18:49 Calm   Clear   62 50     64%     29.98        
May 17 17:49 Calm   Clear   64 51     62%     29.98        
May 17 16:49 Calm   Clear   65 51     60%     29.98        
May 17 15:49 Calm   Clear   66 51     59%              
May 17 14:49 Calm   Clear   66 52     61%     30.01        
May 17 13:49 Calm   Clear   65 53     65%     30.01        
May 17 12:49 W 5   Clear   64 52     66%     30.03        
May 17 11:49 Calm   Clear   64 51     62%     30.03        
May 17 10:49 ENE 4   Clear   62 52     71%              
May 17 09:49 Calm   Clear   59 50     73%     30.04        
May 17 08:49 WSW 6   Clear   57 51     81%     30.04        
May 17 07:49 Calm   Clear   54 51     91%     30.03        
May 17 06:49 Calm   Clear   52 51     95%     30.02        
May 17 05:49 SW 3   Clear   51 50     96%     29.99        
May 17 04:49 Calm   Clear   51 50     95%     29.99        
May 17 03:49 Calm   Clear   52 50     94%     30        
May 17 02:49 Calm   Clear   51 49     92%     29.99        
May 17 01:49 Calm   Clear   53 50     89%     30        
May 17 00:49 Calm   Clear   54 50     86%     30.02        
May 16 23:49 Calm   Clear   55 50     84%     30.02        
May 16 18:49 WSW 9   Clear   58 49     73%     29.97        
May 16 17:49 WSW 6   Clear   59 48     67%              
May 16 16:49 WNW 3   Clear   63 49     61%     29.96        
May 16 15:49 NNW 2   Clear   65 50     58%     29.95        
May 16 14:49 Calm   Clear   65 52     62%     29.95        
May 16 13:49 NW 3   Clear   64 57     78%     29.95        
May 16 12:49 WSW 7   Clear   61 59     92%     29.95        
May 16 11:49 Calm   Clear   59 58     96%              
May 16 10:49     Clear   58 57     96%     29.92        
May 16 09:49 Calm   Clear   57 56     96%     29.92        
May 16 08:49 Calm   Clear   56 55     96%     29.91        
May 16 07:49 Calm   Clear   55 54     95%     29.91        
May 16 06:49 Calm   Clear   56 54     94%     29.91        
May 16 05:49 Calm   Clear   56 54     92%     29.91        
May 16 03:49 Calm   Clear   55 53     93%     29.93        
May 16 02:49 SW 3   Clear   55 52     89%     29.94        
May 16 01:49 Calm   Clear   56 51     83%     29.97        
May 16 00:49 Calm   Clear   58 53     84%     29.98        
May 15 23:49 Calm   Clear   58 53     82%     29.98        
May 15 11:49 Calm   Clear   67 55     66%     30.07        
Notice The following observation data may not be complete
May 15 09:49     Clear            %              
Notice The following observation data may not be complete
May 14 19:49     Clear            %              
May 14 00:49 SW 6   Clear   53 52     96%     30.02        
May 13 17:49 N 3   Clear   66 53     63%     29.96        
Notice The following observation data may not be complete
May 13 10:49     Clear            %              
May 13 02:49 Calm   Clear   55 50     84%     30.02        
May 12 07:49 Calm   Clear   54 51     89%     29.98        
May 11 07:49 Calm   Clear   55 52     90%     29.9        
Notice The following observation data may not be complete
Jun 12 01:49     Clear            %              
Jun 11 22:49 Calm   Clear   56 53     89%     30.01        
Jun 11 21:49 WSW 3   Clear   57 53     88%     30        
Jun 11 10:49 Calm   Clear   58 57     95%     29.96        
Notice The following observation data may not be complete
Jun 11 08:49     Clear            %              
Notice The following observation data may not be complete
Jun 09 17:49     Clear            %              
Notice The following observation data may not be complete
Jun 09 10:49     Clear            %              
Jun 09 01:49 Calm   Clear   58 57     96%     29.98        
Notice The following observation data may not be complete
Jun 07 20:49     Clear            %              
Jun 06 11:49 WSW 8   Clear   69 61     77%     29.98